Meteo Giornale » Osservazioni meteo Ungheria » Gyor Per

ore: 10:45 - Osservazioni Meteo Gyor Per
Lat. 47° 38' N Lon. 17° 48' E Alt. 129 metri s.l.m.

sereno Europe/Budapest

8 °C

Sereno

Temp. 24 Ore

2 °C

8 °C

Ovest/Sud-Ovest

24 Km/h

Dew point 1 °C

Umidità 61 %

Visibilità  10 Km

Il sole sorge alle ore 07:26

Il sole tramonta alle ore 16:33

Data e Ora Cielo e Fenomeni T °C DP °C Um. % Pres. hPa Vis. km Vento km/h
Oggi h: 10:45 sereno Sereno 8 1 61 1016 10 O/SO 24
Oggi h: 10:15 sereno Sereno 8 1 61 1016 10 O/SO 18.5
Oggi h: 09:45 sereno Sereno 7 1 65 1016 10 O/SO 14.8
Oggi h: 09:15 sereno Sereno 7 1 65 1016 10 O/SO 14.8
Oggi h: 08:45 sereno Sereno 6 0 65 1015 10 SO 13
Oggi h: 08:15 sereno Sereno 5 -0 70 1015 10 SO 13
Oggi h: 07:45 sereno Sereno 5 -1 65 1015 10 N 7.4
Oggi h: 07:15 sereno Sereno 4 -1 69 1015 10 SO 11.1
Oggi h: 06:45 sereno Sereno 4 -2 64 1015 10 O/SO 7.4
Oggi h: 06:15 sereno Sereno 4 -1 69 1015 10 SO 16.7
Oggi h: 05:45 sereno Sereno 4 -1 69 1015 10 SO 11.1
Oggi h: 05:15 nuvoloso_piovaschi Debole Rovescio di Pioggia 3 -0 80 1015 10 S/SO 14.8
Oggi h: 04:45 nuvoloso_piovaschi Debole Rovescio di Pioggia 3 -1 74 1015 10 SO 13
Oggi h: 04:15 nuvoloso_piovaschi Debole Rovescio di Pioggia 3 -2 69 1015 10 SO 13
Oggi h: 03:45 nuvoloso_piovaschi Debole Rovescio di Pioggia 3 -1 74 1015 10 O/SO 9.3
Oggi h: 02:45 coperto Coperto 4 -2 64 1015 10 O/SO 16.7
Oggi h: 02:15 coperto Coperto 3 -2 69 1014 10 SO 14.8
Oggi h: 01:45 coperto Coperto 3 -1 74 1015 10 SO 16.7
Oggi h: 01:15 coperto Coperto 3 -1 74 1014 10 SO 18.5
Oggi h: 00:45 coperto Coperto 3 -1 74 1014 10 SO 14.8
Oggi h: 00:15 coperto Coperto 3 -1 74 1014 10 SO 9.3
Ieri h: 23:45 coperto_pioggia Pioggia Debole 2 -1 80 1015 10 O/SO 9.3
Ieri h: 23:15 coperto_pioggia Pioviggine Leggera 3 -1 74 1015 10 SO 9.3
Ieri h: 22:45 coperto_pioggia Pioviggine Leggera 3 -1 74 1015 10 O/SO 9.3
Ieri h: 22:15 sereno Sereno 3 -2 69 1015 10 SO 13
Ieri h: 21:45 sereno Sereno 3 -2 69 1015 10 SO 14.8
Ieri h: 21:15 sereno Sereno 3 -2 69 1015 10 O 18.5
Ieri h: 20:45 sereno Sereno 4 -2 64 1015 10 S/SO 20.3
Ieri h: 20:15 sereno Sereno 3 -2 69 1015 10 S/SO 29.6
Ieri h: 19:45 sereno Sereno 4 -2 64 1015 10 S/SO 33.3
Ieri h: 19:15 sereno Sereno 4 -3 60 1015 10 SO 22.2
Ieri h: 18:45 sereno Sereno 3 -3 64 1016 10 SO 14.8
Ieri h: 18:15 sereno Sereno 3 -3 64 1016 10 S/SO 13
Ieri h: 17:45 sereno Sereno 3 -3 64 1016 10 S/SO 18.5
Ieri h: 17:15 sereno Sereno 3 -3 64 1016 10 S 20.3
Ieri h: 16:45 sereno Sereno 3 -3 64 1017 10 SO 14.8
Ieri h: 15:45 sereno Sereno 4 -4 55 1017 10 S/SO 9.3
Ieri h: 15:15 sereno Sereno 4 -4 55 1017 10 S/SO 9.3
Ieri h: 14:45 sereno Sereno 5 -4 52 1018 10 S/SO 7.4
Ieri h: 14:15 sereno Sereno 5 -4 52 1018 10 S/SO 11.1
Ieri h: 13:15 sereno Sereno 4 -3 60 1019 10 S 9.3
Ieri h: 12:45 sereno Sereno 5 -4 52 1019 10 S/SO 9.3
Ieri h: 12:15 sereno Sereno 4 -3 60 1020 10 SO 9.3
Ieri h: 11:45 sereno Sereno 4 -3 60 1020 10 O/SO 7.4
Ieri h: 11:15 sereno Sereno 4 -4 55 1020 10 O/SO 9.3
Ieri h: 10:45 sereno Sereno 3 -3 64 1021 10 SO 11.1